Weather History for Niagara Falls, NY

Change the Weather History Date:

Friday, March 8, 2013

  Actual Average Record
Temperature  
Mean Temperature 34 °F -  
Max Temperature 41 °F 34 °F 62 °F (2002)
Min Temperature 27 °F 20 °F -2 °F (1999)
Degree Days  
Heating Degree Days 30    
Moisture  
Dew Point 27 °F    
Average Humidity 79    
Maximum Humidity 93    
Minimum Humidity 47    
Precipitation  
Precipitation 0.00 in - - ()
Sea Level Pressure  
Sea Level Pressure 30.36 in    
Wind  
Wind Speed 7 mph (NNW)    
Max Wind Speed 15 mph    
Max Gust Speed 20 mph    
Visibility 9 miles    
Events Snow    
Averages and records for this station are not official NWS values.
T = Trace of Precipitation, MM = Missing Value Source: NWS Daily Summary

Daily Weather History Graph

Daily Weather History Graph

Search for Another Location

Airport:

Trip Planner

Search our weather history database for the weather conditions in past years. The results will help you decide how hot, cold, wet, or windy it might be!

Date:

Astronomy

Mar. 08, 2013 Rise Set
Actual Time 6:39 AM EST 6:13 PM EST
Civil Twilight 6:11 AM EST 6:42 PM EST
Nautical Twilight 5:38 AM EST 7:15 PM EST
Astronomical Twilight 5:05 AM EST 7:48 PM EST
Moon 4:27 AM EST (3/8) 3:03 PM EST (3/8)
Length of Visible Light 12h 31m
Length of Day
11h 34m
Waning Crescent, 12% of the Moon is Illuminated
Mar 8
Waning Crescent
Mar 11
New
Mar 19
First Quarter
Mar 27
Full
Apr 3
Last Quarter

Hourly Weather History & Observations

Time (EST) Temp. Windchill Dew Point Humidity Pressure Visibility Wind Dir Wind Speed Gust Speed Precip Events Conditions
12:29 AM 30.2 °F 23.4 °F 28.4 °F 93% 30.28 in 7.0 mi NW 6.9 mph - N/A   Overcast
12:53 AM 30.0 °F 24.1 °F 28.0 °F 92% 30.32 in 6.0 mi NNW 5.8 mph - N/A   Overcast
1:07 AM 30.2 °F 24.3 °F 28.4 °F 93% 30.28 in 4.0 mi NNW 5.8 mph - 0.00 in Snow Light Snow
1:15 AM 30.2 °F 24.3 °F 28.4 °F 93% 30.28 in 2.0 mi NW 5.8 mph - 0.00 in Snow Light Snow
1:24 AM 30.2 °F 25.4 °F 28.4 °F 93% 30.28 in 3.0 mi NW 4.6 mph - 0.00 in Snow Light Snow
1:40 AM 30.2 °F 24.3 °F 28.4 °F 93% 30.28 in 6.0 mi NW 5.8 mph - 0.00 in   Overcast
1:53 AM 30.9 °F 24.3 °F 28.9 °F 92% 30.32 in 6.0 mi NW 6.9 mph - 0.00 in   Overcast
2:48 AM 32.0 °F 25.6 °F 30.2 °F 93% 30.28 in 6.0 mi NW 6.9 mph - N/A   Overcast
2:53 AM 32.0 °F 25.6 °F 30.0 °F 92% 30.33 in 6.0 mi NW 6.9 mph - N/A   Overcast
3:01 AM 32.0 °F 25.6 °F 30.2 °F 93% 30.29 in 8.0 mi NNW 6.9 mph - N/A   Overcast
3:09 AM 32.0 °F 26.4 °F 30.2 °F 93% 30.29 in 9.0 mi North 5.8 mph - N/A   Overcast
3:23 AM 32.0 °F 24.8 °F 30.2 °F 93% 30.29 in 10.0 mi North 8.1 mph - N/A   Overcast
3:53 AM 32.0 °F 25.6 °F 30.0 °F 92% 30.34 in 10.0 mi North 6.9 mph - N/A   Mostly Cloudy
4:03 AM 33.8 °F 27.7 °F 30.2 °F 87% 30.29 in 10.0 mi NNW 6.9 mph - N/A   Overcast
4:07 AM 32.0 °F 26.4 °F 30.2 °F 93% 30.29 in 10.0 mi NNW 5.8 mph - N/A   Overcast
4:42 AM 32.0 °F 26.4 °F 30.2 °F 93% 30.31 in 10.0 mi NNW 5.8 mph - N/A   Overcast
4:49 AM 32.0 °F 25.6 °F 30.2 °F 93% 30.31 in 10.0 mi North 6.9 mph - N/A   Overcast
4:53 AM 32.0 °F 26.4 °F 30.0 °F 92% 30.35 in 10.0 mi NNW 5.8 mph - N/A   Overcast
5:09 AM 33.8 °F 27.7 °F 30.2 °F 87% 30.31 in 10.0 mi North 6.9 mph - N/A   Overcast
5:53 AM 32.0 °F 26.4 °F 28.9 °F 88% 30.38 in 10.0 mi NNW 5.8 mph - N/A   Overcast
7:03 AM 33.8 °F 27.0 °F 28.4 °F 81% 30.36 in 10.0 mi North 8.1 mph - N/A   Overcast
7:53 AM 33.1 °F 26.9 °F 27.0 °F 78% 30.41 in 10.0 mi North 6.9 mph - N/A   Overcast
8:53 AM 35.1 °F 28.6 °F 25.0 °F 67% 30.43 in 10.0 mi NNE 8.1 mph - N/A   Mostly Cloudy
9:53 AM 37.0 °F 29.3 °F 23.0 °F 57% 30.43 in 10.0 mi NNE 11.5 mph - N/A   Mostly Cloudy
10:53 AM 39.0 °F 31.8 °F 23.0 °F 53% 30.43 in 10.0 mi NNE 11.5 mph 19.6 mph N/A   Scattered Clouds
11:53 AM 39.9 °F 31.8 °F 21.0 °F 47% 30.43 in 10.0 mi NNE 15.0 mph - N/A   Scattered Clouds
12:53 PM 41.0 °F 34.7 °F 23.0 °F 49% 30.41 in 10.0 mi NNE 10.4 mph - N/A   Scattered Clouds
1:53 PM 41.0 °F 34.3 °F 23.0 °F 49% 30.40 in 10.0 mi North 11.5 mph - N/A   Scattered Clouds
2:53 PM 41.0 °F 33.5 °F 24.1 °F 51% 30.40 in 10.0 mi NNW 13.8 mph - N/A   Mostly Cloudy
3:53 PM 39.9 °F 35.1 °F 24.1 °F 53% 30.40 in 10.0 mi NW 6.9 mph - N/A   Mostly Cloudy
4:53 PM 41.0 °F 35.8 °F 26.1 °F 55% 30.41 in 10.0 mi NW 8.1 mph - N/A   Scattered Clouds
5:53 PM 37.9 °F 33.5 °F 25.0 °F 60% 30.42 in 10.0 mi WNW 5.8 mph - N/A   Scattered Clouds
6:53 PM 35.1 °F 32.2 °F 25.0 °F 67% 30.43 in 10.0 mi West 3.5 mph - N/A   Partly Cloudy
7:53 PM 34.0 °F - 25.0 °F 70% 30.44 in 10.0 mi Calm Calm - N/A   Clear
8:53 PM 32.0 °F - 24.1 °F 73% 30.44 in 10.0 mi Calm Calm - N/A   Clear
9:53 PM 30.0 °F - 24.1 °F 79% 30.44 in 10.0 mi Calm Calm - N/A   Clear
10:53 PM 28.9 °F - 23.0 °F 78% 30.43 in 10.0 mi Calm Calm - N/A   Clear
11:53 PM 27.0 °F - 23.0 °F 85% 30.43 in 10.0 mi Calm Calm - N/A   Clear